Wind_Speed
4 4 4 5 4 4 4 5 4 4 5 5 5 6 6 6 6 6 5 5 5 4 4 5 5 6 6 7 8 8 8 8 8 8 10 8 9 10 7 8 8 10 13 13 14 14 14 13 13 12 12 11 11 12 10 10 10 7 7 6 6 7 5 3 1 2 3 4 6 3 2 3 4 3 3 4 9 7 5 6 4 4 8 14 15 17 21 20
4 4 4 5 5 5 5 6 5 5 5 5 6 6 6 6 6 7 7 6 6 5 5 5 6 6 7 8 8 9 9 8 8 8 11 10 9 7 6 9 9 12 15 15 16 16 15 14 14 14 13 11 11 10 9 11 11 9 7 5 8 6 1 6 5 6 4 4 4 3 3 3 5 4 4 6 4 6 8 10 9 6 11 13 15 16 18 20
5 5 5 5 5 5 6 6 6 6 7 6 6 6 6 6 7 7 7 7 7 7 7 6 7 7 7 7 8 9 9 9 9 9 11 9 7 6 5 9 9 11 15 14 15 16 13 13 13 14 14 11 10 10 9 10 10 11 8 6 8 4 4 3 4 4 5 6 5 4 5 5 5 4 5 6 5 9 8 8 10 9 12 13 15 15 17 20
5 5 5 6 6 5 6 6 7 7 7 8 7 7 7 7 7 8 7 7 7 7 7 7 8 7 7 7 8 9 10 11 9 10 11 8 6 5 5 10 10 11 16 13 13 15 11 12 13 14 14 11 11 10 9 10 10 10 9 9 5 4 4 0 2 3 4 6 7 6 6 7 5 4 7 7 7 9 3 3 8 13 13 11 14 15 17 20
6 6 6 6 6 6 6 6 6 7 7 7 8 8 7 7 8 8 8 7 7 7 8 8 8 8 8 6 7 8 9 7 5 10 9 7 6 4 5 9 10 14 19 12 13 15 12 12 13 15 14 10 10 10 10 13 11 8 9 13 10 6 4 1 1 2 3 6 8 7 8 6 5 6 9 8 9 5 5 1 6 18 17 12 14 16 18 21
5 6 6 7 7 7 7 7 7 7 7 7 8 8 8 8 8 8 8 7 7 7 8 8 8 9 8 6 7 6 6 4 6 7 7 6 6 4 5 9 13 17 18 10 13 15 13 14 14 15 13 10 9 9 11 14 12 9 8 12 12 10 8 3 3 4 4 8 8 8 8 7 8 9 8 8 10 7 7 2 5 18 17 13 15 16 19 21
6 6 7 7 7 8 8 8 8 7 8 8 9 8 8 9 9 8 8 8 7 7 7 8 8 9 8 7 7 6 11 8 3 8 8 6 7 4 6 10 15 18 16 11 14 15 15 16 16 14 11 9 9 10 10 12 13 10 9 9 9 9 9 8 7 7 7 9 9 9 10 8 9 9 6 7 11 6 4 1 6 14 16 14 15 17 19 20
6 7 7 8 8 8 9 9 8 8 8 9 10 9 9 9 9 9 9 9 7 7 7 7 8 8 8 7 7 10 13 10 8 10 8 8 8 5 7 13 17 16 14 13 14 15 15 16 16 14 10 8 7 9 8 8 12 12 11 10 8 8 9 9 8 9 9 9 9 10 11 10 11 11 7 10 10 3 1 3 8 12 14 15 16 18 19 19
7 7 8 8 8 9 9 9 9 9 9 10 10 10 10 10 10 10 10 9 8 7 6 7 8 8 8 6 8 11 7 9 12 11 5 7 8 6 9 15 16 14 12 14 13 13 14 14 16 13 9 7 5 8 9 8 8 9 12 12 10 10 9 9 10 10 9 9 10 10 11 11 11 10 10 15 10 1 3 6 8 11 14 14 15 17 18 18
7 8 8 9 9 9 9 9 9 9 10 10 11 10 11 10 10 11 11 10 9 8 6 6 7 6 6 6 10 9 3 5 7 7 4 7 9 11 12 13 14 13 12 12 12 13 13 11 12 10 9 7 5 7 11 10 5 3 9 12 12 12 11 10 10 9 9 10 11 10 11 11 10 8 10 13 8 3 5 7 9 10 12 11 13 16 17 17
8 9 9 9 9 9 9 9 9 10 10 11 11 11 11 11 11 12 12 11 10 8 6 6 6 6 4 7 12 8 2 3 2 3 6 9 11 13 13 13 13 11 10 10 11 12 11 9 7 7 6 5 6 8 11 12 9 7 7 9 11 13 13 13 12 10 10 10 11 11 12 12 10 9 12 9 8 6 7 9 10 10 10 9 12 16 16 17
9 9 10 10 10 9 9 9 9 10 11 11 12 11 11 11 11 12 12 11 11 8 7 6 6 5 4 9 16 11 3 3 4 4 8 11 11 11 11 13 12 10 8 8 10 10 10 8 8 11 5 3 7 6 8 13 13 10 8 10 11 13 13 14 14 11 10 8 7 8 9 12 11 12 17 11 8 9 10 10 10 9 10 11 12 14 15 16
10 10 11 11 11 10 10 10 9 10 11 11 12 11 12 12 11 12 12 11 11 9 7 6 6 3 4 10 12 10 6 4 6 7 10 12 11 10 11 13 11 8 7 6 7 8 9 7 9 14 7 6 7 2 2 9 10 10 10 10 9 10 12 15 14 9 10 7 5 5 6 11 13 17 23 14 10 11 11 12 11 9 10 12 12 13 14 15
11 11 12 13 12 11 10 10 10 10 11 11 11 11 11 11 11 11 11 11 10 9 7 7 6 2 6 11 8 11 10 6 8 10 12 13 13 11 12 12 10 8 7 5 4 6 8 7 9 11 10 11 7 2 4 8 8 9 10 8 7 8 7 12 12 8 8 7 8 8 7 9 10 18 20 12 10 12 12 13 12 12 14 15 14 13 14 15
12 13 14 14 13 12 11 10 10 9 10 11 11 11 11 11 11 10 10 11 9 9 7 6 4 3 8 12 8 11 13 10 11 13 13 14 14 12 12 11 9 8 7 6 4 5 6 7 9 10 10 11 8 5 8 8 7 8 8 7 8 8 4 12 11 9 7 5 9 11 7 8 6 12 14 9 9 12 13 13 13 17 19 19 17 14 14 15
13 14 15 15 14 12 11 10 9 9 10 11 11 11 11 10 10 9 9 9 8 8 4 2 2 5 8 7 8 7 8 12 14 14 15 15 15 13 13 11 9 9 8 7 5 5 6 8 11 11 10 10 8 7 7 7 7 8 8 8 8 9 6 9 10 10 7 3 9 10 7 9 6 10 11 8 11 12 13 14 13 16 14 14 15 15 14 13
14 15 15 15 14 13 11 9 9 9 10 10 10 10 10 10 9 9 8 8 7 6 2 1 1 7 9 5 8 8 8 10 10 16 17 15 15 12 12 12 11 11 9 8 6 6 8 10 10 10 9 8 8 8 8 7 7 7 7 8 7 7 6 4 8 10 8 5 8 9 7 11 7 6 9 9 12 14 14 15 14 14 12 12 13 13 14 13
14 15 15 14 14 13 11 9 8 9 9 9 9 8 9 9 8 9 8 6 4 2 4 6 6 7 10 11 7 5 11 9 8 15 16 16 16 12 12 13 12 12 11 9 9 10 10 11 10 7 7 8 8 9 8 8 7 8 9 8 7 7 7 6 4 8 9 7 8 8 8 11 11 4 6 10 11 13 15 14 13 14 14 15 13 13 15 15
14 14 14 14 13 13 11 8 8 8 8 8 8 7 7 7 8 8 7 6 7 6 3 8 14 3 0 11 9 5 10 10 9 12 13 16 17 14 14 13 12 14 12 9 11 13 11 9 9 8 7 9 11 11 12 11 6 7 8 7 9 8 8 8 4 7 5 6 8 8 9 10 12 12 12 11 11 12 14 14 13 13 15 16 15 15 14 15
14 13 13 13 12 11 10 8 8 8 8 7 6 5 6 6 5 4 7 11 16 15 10 6 16 9 2 7 9 8 9 10 9 10 12 14 17 17 16 14 14 14 12 8 9 12 11 8 8 9 10 12 14 13 15 13 5 7 9 5 8 8 7 7 5 5 3 5 7 8 11 11 12 12 12 13 12 11 13 15 16 15 16 18 18 16 14 13
13 12 12 12 11 10 9 8 8 8 8 6 3 4 6 6 4 1 1 12 19 20 17 11 13 13 7 4 6 8 10 11 11 11 12 14 17 17 16 16 13 11 12 11 9 9 10 9 9 12 13 13 12 13 15 12 4 6 9 6 7 8 8 6 6 5 3 5 8 9 11 12 12 12 11 14 11 11 13 15 17 19 19 20 20 19 16 13
12 11 11 11 10 9 8 9 8 8 8 5 3 6 6 6 4 5 6 10 15 17 18 15 13 14 11 8 7 6 9 12 13 14 14 15 17 16 15 16 12 9 12 12 8 7 8 9 12 13 12 11 8 8 11 9 6 8 8 8 8 8 9 5 7 5 5 4 7 9 10 10 10 11 12 15 13 11 15 16 17 20 21 20 21 19 17 13
11 10 10 10 9 8 8 8 8 8 8 5 5 6 7 6 4 6 7 10 12 14 17 15 15 14 13 13 12 10 11 13 13 16 17 16 18 17 15 14 13 11 12 12 10 7 7 9 14 15 10 8 7 6 7 7 7 8 8 8 9 9 11 6 5 6 6 5 8 9 9 8 8 10 12 16 18 15 15 18 18 20 22 21 22 20 18 17
10 9 9 9 8 7 8 8 8 8 7 6 7 8 9 7 3 6 7 9 10 9 11 11 12 13 12 11 12 16 17 15 14 16 20 18 18 16 14 14 13 12 11 14 13 11 10 6 9 13 9 8 9 9 9 7 7 9 11 11 9 11 13 7 5 5 5 7 10 10 9 8 10 12 13 14 17 17 15 17 17 17 21 21 23 22 17 20
9 9 9 8 7 7 7 6 6 6 5 6 6 8 8 6 3 5 6 8 7 7 9 8 10 9 9 9 10 15 16 16 18 17 19 21 18 14 13 14 12 12 13 15 14 12 13 4 4 8 8 9 11 10 11 9 7 9 11 14 13 13 13 7 7 7 6 8 10 12 10 7 11 15 15 13 14 16 14 15 16 17 19 21 23 23 19 19
9 9 9 7 6 5 2 3 2 3 4 5 4 6 5 3 4 4 4 6 5 8 10 9 10 7 9 10 12 13 12 15 21 20 18 20 20 15 11 11 10 12 13 13 10 8 10 7 7 8 8 10 12 9 11 11 8 8 9 13 15 14 13 10 11 10 7 8 4 7 8 7 8 11 11 11 12 13 12 13 15 17 18 19 22 23 22 18
9 9 9 7 6 3 2 2 4 3 2 4 5 5 3 3 5 2 3 6 4 8 10 9 8 6 8 10 13 13 4 7 17 21 20 19 20 17 12 10 10 11 11 9 8 6 9 8 7 10 11 10 11 9 11 12 8 8 5 6 10 11 12 12 12 10 8 9 4 6 9 9 8 8 8 10 10 10 13 14 13 14 15 17 20 21 24 21
9 10 9 7 5 4 6 7 7 3 3 6 6 4 4 4 4 2 4 5 3 7 7 7 6 6 6 8 14 13 1 5 11 17 22 19 19 18 13 12 11 11 12 9 7 7 9 11 8 10 11 9 9 9 11 12 10 9 3 2 7 9 11 11 10 9 9 10 8 8 11 8 7 10 9 10 11 11 12 9 8 7 8 11 15 17 22 19
10 10 9 6 5 5 6 8 9 7 6 7 7 5 5 4 3 3 5 3 4 5 5 7 7 7 7 7 13 14 5 5 5 11 22 19 19 18 12 14 13 11 13 11 10 7 8 12 11 10 10 8 9 9 9 10 10 9 4 4 7 8 9 10 9 9 9 10 10 10 10 8 7 8 7 7 9 9 6 6 5 3 4 9 14 17 20 13
10 10 8 5 3 3 4 5 8 11 9 8 8 6 5 4 3 5 5 2 4 6 6 7 8 9 10 9 11 13 11 9 5 10 18 18 20 20 13 14 13 11 12 12 12 10 5 6 6 8 9 9 9 9 8 9 10 7 4 6 8 8 9 9 8 8 9 9 10 13 14 11 8 5 2 1 1 0 3 5 2 2 4 9 11 16 20 11
10 9 8 6 3 2 4 3 4 8 10 10 9 7 6 4 5 6 4 2 2 6 7 7 8 8 10 8 8 12 12 10 9 11 13 12 16 17 12 10 10 9 10 11 12 14 9 8 5 8 12 11 10 11 11 12 11 8 5 7 8 8 8 7 7 8 8 9 9 13 16 13 9 3 3 3 4 3 2 2 0 3 5 6 6 12 14 8
9 9 8 6 5 6 8 6 6 6 9 11 9 7 7 5 6 6 3 3 3 5 5 5 8 7 8 7 5 10 11 10 11 12 11 11 12 13 12 10 8 9 10 10 11 12 11 10 9 10 13 14 11 9 10 10 10 9 8 8 8 7 7 7 7 8 8 9 10 11 10 10 7 1 5 3 3 4 3 3 2 2 3 3 4 8 7 6
8 8 7 5 5 7 10 10 9 9 11 11 8 8 7 5 6 5 3 5 2 3 2 2 4 5 6 7 7 10 10 10 12 12 12 13 11 12 16 15 13 11 9 9 10 10 9 10 12 12 11 14 13 9 8 9 9 11 9 8 8 7 7 7 7 8 8 9 11 8 5 7 5 2 5 4 3 5 3 4 4 3 1 1 4 6 6 8
7 7 5 4 4 7 10 11 10 11 12 10 8 8 6 6 4 2 3 3 4 2 2 3 4 7 9 10 6 8 8 9 13 12 12 13 11 11 14 17 18 14 8 8 9 9 10 9 12 12 9 13 15 12 10 8 10 12 10 9 9 7 7 7 6 6 6 6 8 9 6 6 5 2 5 5 4 4 4 5 4 4 1 1 3 4 6 8
4 3 2 4 6 7 9 11 12 13 12 9 8 6 6 6 5 4 3 2 4 1 3 3 6 8 9 9 4 5 7 6 12 13 10 11 11 10 11 14 18 15 10 9 7 8 12 9 10 13 12 14 15 15 14 10 8 10 10 10 9 8 7 6 5 4 2 4 5 7 6 2 3 4 5 4 4 4 5 5 4 3 3 2 2 3 4 6
0 1 2 4 4 6 8 10 13 15 12 9 8 6 7 5 2 0 1 4 3 3 3 5 8 8 8 8 7 8 7 4 9 11 9 11 12 12 12 12 15 17 12 9 5 6 10 8 9 14 14 14 14 15 14 12 7 6 9 11 9 9 9 6 7 5 2 5 6 6 6 4 6 5 5 5 5 5 5 4 5 4 4 4 4 4 2 3
3 0 1 2 3 5 8 11 13 15 12 9 7 6 5 2 1 3 4 4 3 3 6 6 5 5 7 7 8 10 9 6 9 9 8 10 10 12 13 11 14 17 16 12 7 5 7 6 7 12 13 13 13 15 15 15 11 5 6 8 8 10 9 6 6 6 5 8 7 7 10 5 5 3 3 5 5 5 4 4 5 4 5 6 7 9 7 7
4 3 4 4 3 5 10 14 15 14 11 8 7 7 5 0 1 2 3 4 5 4 6 6 1 3 6 6 6 8 8 7 8 8 8 7 7 10 13 12 13 16 18 16 9 5 6 6 6 11 12 12 13 12 12 15 17 12 6 5 6 8 8 6 6 6 7 7 6 9 11 4 2 2 4 4 4 4 3 3 4 4 6 6 8 9 8 8
7 5 6 6 5 6 11 15 15 12 10 7 6 6 6 2 1 1 3 4 4 4 5 4 2 2 5 6 4 4 5 7 8 8 7 7 5 4 8 9 10 12 15 16 10 5 5 6 6 9 11 10 10 9 9 10 15 15 10 7 6 6 6 6 6 6 8 7 6 9 9 1 4 3 4 4 4 4 4 4 4 5 7 7 8 8 7 7
8 5 6 9 8 9 12 14 13 10 8 7 5 2 3 3 2 1 3 4 4 5 4 4 2 3 5 6 6 4 4 6 7 6 6 8 6 4 6 6 6 10 13 15 13 7 5 6 5 7 9 9 8 8 10 10 11 12 10 9 7 7 6 5 4 5 7 6 5 7 5 2 3 2 3 5 5 3 4 5 5 6 9 9 10 11 10 9
7 4 6 11 9 10 12 11 9 8 6 5 5 2 2 1 1 2 3 3 5 5 4 5 5 5 5 5 6 6 4 6 7 6 6 6 4 4 4 2 5 8 10 12 11 7 5 6 7 6 7 9 9 11 14 13 11 10 10 10 10 8 7 7 7 6 6 6 6 6 2 4 2 1 4 6 6 4 4 7 7 9 10 10 11 12 11 11
6 3 7 12 10 9 8 7 5 6 7 3 2 1 3 2 4 3 3 5 6 6 5 5 6 6 6 6 7 5 4 7 8 6 7 4 3 4 1 2 7 8 7 8 8 8 6 5 8 8 7 8 8 9 10 8 8 10 10 10 11 9 8 8 6 4 6 6 7 8 4 5 2 2 5 7 8 9 9 9 9 10 12 11 11 12 11 12
7 4 7 11 10 7 6 6 5 6 5 1 2 2 2 2 6 4 3 5 6 5 5 5 6 6 6 5 6 6 4 6 8 6 6 4 5 4 4 3 6 9 7 5 5 8 7 5 8 8 8 8 5 5 6 7 8 10 8 8 9 10 9 8 4 2 4 4 6 7 3 4 1 2 7 8 10 12 14 13 11 11 12 12 12 11 11 12
7 5 7 10 8 6 6 5 4 6 4 2 3 5 3 4 6 4 4 6 5 5 5 5 6 6 5 4 5 8 6 4 6 6 5 3 4 2 5 4 6 9 5 2 1 4 5 6 8 7 7 8 6 6 8 9 9 9 8 10 12 11 10 8 5 4 5 4 5 7 1 4 4 4 7 7 9 12 13 14 13 12 12 11 10 10 11 11
7 6 7 9 8 8 7 5 5 3 2 2 3 5 4 5 5 4 7 6 5 5 5 5 5 4 5 6 6 8 8 6 6 5 5 3 3 5 3 4 6 7 3 5 2 6 6 6 7 7 8 8 6 5 5 5 7 8 11 11 10 10 11 9 6 7 6 6 8 8 0 6 5 5 6 6 8 11 11 12 12 12 11 10 10 10 10 10
6 5 6 8 8 9 8 6 6 3 2 3 3 3 5 5 5 4 5 7 6 5 6 6 5 4 6 8 7 8 10 9 8 5 5 4 1 3 1 1 2 3 9 8 5 6 5 4 5 8 8 4 3 4 6 7 6 8 13 12 6 7 10 9 8 7 5 3 5 4 5 8 6 6 6 6 8 9 9 10 11 11 11 10 10 11 11 11
7 4 5 5 6 7 7 7 7 3 2 4 2 2 4 5 4 5 4 6 5 4 7 6 5 6 6 7 7 7 9 9 8 7 7 5 1 2 2 0 4 7 8 5 4 2 4 6 8 10 10 6 4 4 7 9 7 8 11 9 6 6 9 10 9 5 4 3 2 1 7 10 7 7 7 7 8 8 8 9 10 10 10 10 10 11 12 12
6 2 3 2 2 4 4 4 5 3 2 3 2 2 4 4 5 4 4 6 5 5 6 5 6 7 6 5 6 6 8 9 8 7 7 7 4 4 2 1 5 6 4 3 3 1 4 6 5 7 9 6 3 1 5 7 5 5 5 3 4 4 7 8 6 3 4 4 3 5 9 10 7 7 8 7 8 9 9 9 9 9 10 10 11 12 13 12
5 1 3 3 2 0 2 2 3 4 3 3 3 3 3 3 4 4 4 5 5 6 6 5 7 7 4 5 6 6 5 6 6 4 2 6 6 2 2 1 3 4 3 2 2 3 3 3 1 4 7 2 4 2 4 3 5 3 3 2 2 2 2 2 3 3 2 3 6 11 13 11 7 6 7 8 9 10 9 9 10 10 11 12 12 13 12 12
4 1 3 5 3 2 3 2 3 3 3 3 3 3 2 2 2 2 2 3 4 5 5 5 7 7 4 4 5 3 2 3 4 3 2 4 5 2 1 3 2 1 2 3 3 5 3 3 5 6 7 2 4 5 2 2 7 3 8 9 6 4 5 6 6 5 5 7 10 12 11 8 5 6 8 8 9 10 10 10 11 11 11 12 12 12 12 12
5 3 3 5 3 4 4 4 4 4 4 4 3 4 3 2 2 2 2 4 4 4 4 4 5 5 5 5 3 1 1 3 4 5 4 4 4 2 1 2 3 2 1 0 2 2 4 4 3 6 9 5 5 7 5 5 7 3 9 11 9 5 4 6 7 7 5 3 8 8 5 5 5 7 9 9 10 11 11 11 11 12 12 11 12 11 11 11
5 4 5 6 2 4 4 4 4 5 3 3 2 3 3 2 1 2 2 4 5 3 3 3 4 4 5 5 3 1 4 6 6 6 5 4 3 1 2 1 1 2 2 2 2 1 2 5 4 4 7 5 4 6 6 6 5 2 5 9 9 7 4 4 7 9 8 3 3 3 4 7 9 8 8 8 9 11 12 11 10 10 11 11 11 11 10 10
Wind_Direction
287 289 292 294 295 298 296 298 298 301 304 306 308 310 312 311 313 307 307 306 306 314 312 316 315 322 328 327 327 322 321 309 300 282 262 245 228 229 216 209 207 195 190 178 171 182 186 192 197 194 202 201 217 223 201 215 227 221 233 234 237 231 245 301 172 68 10 85 74 27 31 300 305 360 313 246 218 226 215 201 167 129 104 98 110 137 149 155
284 288 292 296 297 302 301 299 298 298 298 295 297 299 300 302 303 300 305 306 306 310 306 313 310 317 328 327 331 324 319 312 300 269 245 232 222 224 205 198 195 190 187 176 177 186 187 191 193 192 203 203 208 208 193 207 218 222 231 229 237 235 24 359 6 31 356 6 26 323 336 307 295 340 304 277 235 224 221 183 173 148 112 114 125 140 153 158
287 289 291 297 300 305 303 302 302 302 298 294 292 289 292 291 291 293 296 301 303 304 304 307 305 312 322 324 329 321 320 312 286 250 223 212 209 208 189 188 190 189 183 177 184 190 192 194 191 195 207 210 202 194 195 200 208 224 235 231 235 279 19 18 1 3 349 342 323 313 327 279 276 309 276 288 283 245 232 170 172 154 123 125 132 146 157 158
292 292 296 299 301 307 306 306 305 305 301 298 296 289 290 287 286 289 288 294 296 299 302 300 304 309 314 323 324 323 327 306 260 207 196 193 198 198 187 186 182 176 169 172 194 195 201 200 193 203 214 219 204 200 210 199 201 218 227 241 249 355 330 208 31 342 343 322 303 310 296 266 282 292 263 274 258 235 204 167 182 148 135 142 143 156 163 164
296 300 302 302 305 309 305 304 303 303 304 302 299 292 291 288 286 286 287 291 291 294 296 295 299 301 310 322 319 326 326 306 169 169 199 199 198 198 196 187 177 171 161 172 206 200 209 207 198 209 221 229 203 203 224 205 212 233 229 251 275 314 287 169 50 310 322 296 287 284 276 289 304 269 257 265 263 281 57 70 169 137 142 160 161 169 170 171
294 301 301 306 310 309 302 301 300 299 303 299 295 293 291 288 286 287 287 288 287 290 289 293 296 295 307 311 314 319 286 284 124 175 223 207 208 220 214 190 177 173 162 181 209 201 211 205 201 210 220 233 205 204 227 208 214 243 235 243 260 265 263 281 277 275 292 277 273 277 285 300 285 263 259 257 263 310 31 37 141 131 145 167 171 177 175 173
288 293 298 305 306 305 302 300 299 299 299 293 290 291 291 289 289 288 286 285 284 288 288 293 294 293 304 307 312 281 253 265 197 218 239 224 225 240 227 190 178 175 167 192 201 196 206 200 205 211 217 232 213 212 223 211 216 238 251 243 243 250 259 273 275 272 269 267 272 278 280 275 263 260 259 251 254 283 31 122 156 137 146 165 173 180 180 175
285 290 297 301 301 301 300 299 299 299 295 291 289 288 289 289 289 288 285 285 285 288 291 295 298 299 305 310 304 270 247 237 228 245 257 229 223 225 198 173 174 174 174 199 195 195 204 201 210 212 221 235 214 211 210 215 224 231 250 255 253 253 257 263 263 261 259 261 266 263 264 259 253 265 272 253 246 255 28 168 163 154 153 164 176 178 178 176
282 291 296 296 298 298 299 300 298 296 291 288 288 286 287 287 287 285 282 283 285 286 292 296 297 301 306 314 296 276 236 204 232 256 252 203 198 176 164 163 168 172 185 200 195 201 205 204 214 218 244 256 215 213 208 218 228 223 240 251 253 251 251 255 252 252 255 254 256 254 256 252 247 259 259 240 229 183 208 176 165 167 156 164 176 174 174 174
281 290 293 294 296 297 300 300 297 294 287 285 285 284 283 283 283 282 280 282 282 284 291 294 295 301 311 308 283 272 166 175 240 254 211 183 175 149 147 161 164 174 194 197 198 207 209 213 218 225 261 266 232 224 215 222 245 236 247 254 255 259 259 256 253 251 256 254 249 252 254 252 243 244 242 221 196 186 199 176 175 165 150 162 171 170 174 173
286 291 293 296 297 299 300 299 296 290 285 284 282 280 279 279 279 278 279 281 282 286 290 293 294 295 304 281 268 267 127 149 199 226 198 173 168 148 147 166 166 179 194 192 204 212 217 229 227 222 240 242 228 228 224 231 257 272 268 264 254 256 255 248 249 242 246 248 237 247 255 251 239 237 240 200 162 202 201 183 181 153 143 163 172 172 174 174
291 294 296 299 300 301 302 301 297 288 284 282 279 278 276 277 276 276 279 282 285 287 289 291 285 287 301 270 257 258 279 206 173 188 183 162 162 157 161 175 173 182 191 193 208 212 219 229 230 228 232 253 227 218 226 227 245 262 259 264 251 245 243 234 234 228 235 240 225 246 255 241 226 227 236 206 169 202 199 195 178 149 154 169 180 176 175 177
295 298 301 302 302 302 305 306 299 289 283 279 278 277 275 276 275 276 279 282 286 287 290 286 277 275 275 271 253 240 245 212 192 181 170 164 163 165 171 177 178 188 198 203 207 209 219 225 231 234 243 261 233 170 246 223 234 252 243 255 255 243 236 219 215 214 232 229 202 238 253 238 212 212 228 208 182 200 200 205 177 159 169 168 186 182 177 183
295 299 302 302 302 302 306 308 300 290 283 280 278 276 277 276 274 277 279 283 286 288 290 279 274 222 239 264 257 239 235 202 199 188 173 172 168 165 168 174 184 193 198 205 207 204 218 226 233 241 243 253 254 178 237 228 225 244 237 233 239 255 229 183 182 194 216 185 181 225 251 257 211 196 210 189 185 204 207 209 166 165 182 174 189 188 179 187
293 298 300 300 302 302 305 307 297 287 282 279 278 279 280 278 280 281 280 284 286 287 287 278 262 193 245 256 238 250 249 218 206 192 182 181 175 172 172 177 185 190 195 199 210 208 213 219 221 235 230 234 260 237 225 226 216 226 236 226 218 242 183 148 165 199 215 157 179 220 238 260 230 179 180 165 200 210 212 214 170 178 188 175 183 186 184 186
295 298 299 299 301 302 304 304 292 283 279 277 278 282 284 287 289 284 282 282 281 283 278 303 273 220 266 262 216 249 243 215 212 196 191 188 185 186 178 179 182 185 196 196 207 211 209 214 216 232 229 214 229 235 229 222 213 210 226 241 217 214 196 157 169 197 222 182 186 215 244 260 240 155 157 183 219 213 212 220 197 195 192 178 186 184 184 180
296 298 298 299 299 300 301 299 288 280 276 277 282 289 296 298 292 282 278 271 273 280 233 192 229 234 257 249 226 236 200 196 204 194 196 193 193 194 178 180 185 184 192 193 204 209 201 209 215 231 236 221 217 228 234 221 215 203 206 247 242 220 228 179 155 171 193 213 211 216 238 264 270 127 148 196 216 214 212 217 211 201 195 200 202 186 182 182
296 297 298 298 296 297 297 294 284 275 275 280 287 298 304 297 286 278 270 267 268 276 261 217 195 240 242 214 217 205 172 171 173 182 191 194 196 197 184 184 183 181 190 194 202 205 196 203 212 219 223 221 220 220 228 228 227 217 200 220 239 229 246 242 152 147 175 207 227 225 226 248 265 258 204 203 203 216 215 209 214 207 203 209 207 200 190 186
295 296 297 294 292 293 292 289 277 273 275 278 295 310 305 291 280 271 248 229 196 198 274 192 189 247 38 183 191 144 150 154 155 169 181 190 192 194 192 189 185 187 196 195 191 196 193 199 210 219 217 210 218 220 227 239 260 269 241 216 229 227 225 231 165 128 170 227 232 236 243 242 246 246 242 227 199 211 220 206 210 214 213 215 210 211 198 184
293 295 296 292 290 291 291 288 276 277 279 283 312 313 295 285 262 235 200 214 219 234 282 220 201 238 33 159 177 160 160 162 170 176 178 183 184 189 193 191 192 196 209 203 180 189 197 209 212 215 223 214 217 224 237 256 302 301 284 254 242 249 237 223 176 142 179 251 246 244 252 253 252 247 248 242 203 198 225 211 208 218 221 224 218 211 200 186
292 293 295 291 290 292 292 287 279 282 282 287 308 268 293 323 304 323 232 240 236 239 262 254 224 241 248 192 164 167 180 184 192 186 175 177 180 187 189 191 198 198 215 212 178 183 200 221 224 218 228 227 222 225 238 264 296 259 266 264 243 246 250 222 160 166 195 238 253 251 250 249 249 248 250 250 221 194 222 220 210 219 224 225 223 214 198 185
292 292 294 293 292 293 288 282 279 279 279 280 265 255 297 331 316 332 329 280 256 238 242 243 237 242 239 219 197 194 202 197 196 185 175 176 183 190 184 190 207 200 207 211 185 184 207 229 234 226 230 232 236 239 234 244 253 243 248 257 251 239 242 210 146 183 215 232 254 253 256 254 246 244 242 248 241 212 220 228 215 217 226 226 227 217 188 181
290 291 294 293 293 293 282 279 276 273 272 261 249 260 286 293 298 324 309 287 273 242 229 229 229 229 225 220 211 206 216 214 199 183 177 181 192 201 191 190 213 212 202 207 201 198 214 224 227 228 225 218 225 236 234 227 231 242 242 243 246 239 243 229 172 197 208 233 266 271 270 265 257 253 245 243 244 231 220 228 223 217 224 227 234 225 182 182
288 292 293 292 296 293 281 280 277 273 267 251 251 257 269 273 298 332 300 275 272 229 208 217 221 218 216 211 202 204 216 223 214 192 180 188 199 204 208 202 211 222 207 204 210 222 241 230 212 219 204 195 215 214 220 230 226 228 236 245 247 243 247 239 210 217 216 233 248 260 269 260 246 244 242 238 236 234 222 224 227 220 222 224 234 237 202 187
290 292 294 296 298 292 289 296 284 273 263 261 268 252 258 273 276 322 302 266 252 194 174 189 197 201 200 188 186 200 214 222 224 210 184 191 204 199 211 212 212 226 212 203 211 232 247 221 155 214 193 192 223 217 212 224 236 224 219 234 247 257 264 260 254 258 253 250 234 228 247 253 239 238 235 229 224 222 222 226 227 223 225 225 227 235 227 201
291 293 298 297 297 293 315 344 266 240 252 254 255 232 236 283 272 302 295 260 230 170 159 176 182 171 180 186 183 193 218 222 218 215 193 194 208 208 212 208 208 230 218 205 213 237 240 186 156 219 214 209 227 223 212 212 234 243 217 221 232 249 267 265 261 259 252 273 251 202 246 270 255 247 231 231 228 206 212 230 228 225 226 228 228 230 232 211
293 293 296 295 298 267 199 236 219 211 262 221 214 232 227 264 273 295 264 253 219 160 148 164 173 144 160 176 177 186 214 191 194 207 202 195 203 212 226 210 200 227 225 211 215 223 230 203 181 218 221 222 227 220 211 206 224 243 223 221 227 234 250 248 248 252 253 269 249 186 238 267 269 261 228 225 233 213 218 223 217 229 229 230 234 229 233 220
293 291 294 297 297 258 223 232 220 213 284 225 210 244 231 244 269 256 248 246 158 144 141 149 145 128 152 171 188 201 98 120 181 198 195 197 200 202 226 227 210 216 215 222 226 191 200 216 209 212 219 223 223 220 210 205 225 239 208 216 245 246 249 246 243 245 248 257 251 219 230 252 262 263 243 217 217 220 224 201 188 234 251 256 255 243 241 220
291 290 295 294 296 287 250 233 217 213 248 240 225 228 223 237 253 232 252 254 140 148 143 144 151 167 174 171 196 213 216 194 202 178 181 195 205 203 226 235 227 223 211 220 237 200 183 214 215 207 219 224 217 222 212 200 222 247 248 224 243 255 250 247 247 247 245 245 253 248 241 250 255 258 255 227 217 221 204 159 173 232 267 271 269 265 257 204
289 289 293 286 304 324 281 261 232 219 227 231 214 200 213 232 231 224 227 214 166 159 145 151 162 176 179 179 194 203 211 208 158 157 181 191 202 211 230 233 235 239 215 208 234 238 176 178 217 221 226 230 221 221 213 201 216 246 270 235 230 237 237 241 244 250 253 241 241 248 248 253 257 263 310 248 206 226 139 149 197 275 259 252 244 251 256 212
287 286 287 273 240 208 233 264 253 230 222 213 193 189 216 222 234 239 196 154 180 153 155 172 166 170 191 211 205 184 196 204 167 171 190 184 194 207 218 224 229 238 222 203 224 239 208 170 205 227 227 233 231 225 215 206 214 228 236 234 231 223 221 230 231 233 247 247 241 245 245 245 246 246 71 88 90 64 57 114 43 287 257 250 232 234 242 207
287 283 279 270 241 202 186 188 204 214 205 196 187 202 226 211 225 243 166 149 201 161 166 178 165 184 210 230 216 176 187 201 182 182 192 189 194 198 206 213 199 208 222 207 208 227 221 207 208 205 211 224 227 221 211 202 212 224 221 227 233 222 214 224 228 223 232 244 247 252 250 240 241 123 105 121 97 84 47 55 55 324 272 240 238 234 217 169
287 280 269 256 235 204 191 194 197 192 184 183 195 218 235 226 219 240 199 176 142 92 131 167 180 217 227 226 206 182 191 194 183 191 196 196 199 196 207 216 207 209 224 215 208 215 219 214 207 198 194 209 220 219 204 195 205 216 214 218 227 222 218 223 230 230 229 236 239 244 249 236 239 89 115 137 101 99 83 73 75 42 2 229 222 220 185 167
281 275 266 226 202 190 190 193 185 178 172 177 210 221 229 243 228 247 248 168 96 83 172 180 224 228 231 239 207 173 206 201 181 192 195 193 203 201 204 213 214 217 226 221 217 218 225 215 200 202 187 186 207 224 221 206 203 212 217 224 231 230 230 233 238 239 242 251 233 214 226 247 241 103 92 90 89 104 99 92 89 80 81 234 212 201 187 176
276 262 212 169 172 169 172 179 177 173 171 188 224 221 212 238 229 210 231 83 81 189 185 187 236 230 222 233 216 189 231 214 183 195 200 196 205 205 201 208 212 216 219 219 215 217 235 232 192 202 204 189 198 221 234 232 212 205 213 225 232 233 234 247 271 281 281 278 245 213 224 247 143 129 104 94 93 92 90 97 98 100 121 159 172 181 185 168
85 84 124 131 163 178 174 180 178 173 179 206 225 219 216 237 275 307 356 20 12 309 290 229 222 231 220 204 198 204 211 203 198 205 206 204 206 205 207 205 204 211 218 219 215 211 231 236 187 193 209 205 201 211 224 237 236 202 207 222 228 232 237 248 256 255 237 254 256 241 234 162 142 162 138 116 98 80 79 93 97 104 119 124 110 97 101 117
135 183 159 126 198 202 183 184 179 176 194 227 230 230 240 230 322 7 14 345 314 304 286 254 198 220 238 206 190 192 185 190 211 212 208 209 207 204 209 208 198 206 219 225 227 215 228 247 198 189 205 208 210 216 215 224 239 233 217 222 219 225 236 252 251 232 219 240 247 245 242 208 167 191 136 112 94 81 78 88 94 98 106 103 83 68 54 49
149 196 166 146 188 187 179 180 176 180 203 232 235 246 271 238 139 343 354 323 304 281 267 270 200 226 257 236 197 184 182 193 203 212 218 209 201 202 210 210 197 202 216 221 226 216 228 251 209 197 212 203 201 221 218 212 223 233 247 246 232 232 226 219 234 238 233 240 244 243 242 235 82 109 125 130 131 120 112 111 111 104 103 101 86 69 53 50
161 188 162 138 128 141 166 170 170 187 210 228 234 235 247 237 136 340 317 301 287 272 270 278 258 239 257 260 250 191 204 221 207 211 225 207 197 238 243 226 199 202 215 218 222 213 220 249 214 199 217 201 185 211 222 204 208 223 241 242 240 253 242 222 223 232 239 236 236 242 235 169 48 64 111 119 119 130 143 131 117 99 92 91 93 84 66 63
179 202 160 140 126 128 149 159 173 201 214 226 243 215 197 221 181 202 271 283 273 266 283 296 270 240 249 268 279 248 233 246 224 214 228 208 190 228 253 252 219 207 213 220 222 210 202 236 230 205 208 199 184 203 217 211 197 205 225 228 223 233 238 243 240 241 259 257 247 253 238 121 65 74 130 128 111 118 144 128 106 90 80 71 76 76 63 57
200 216 154 154 153 139 146 165 191 216 218 225 251 234 114 358 277 198 205 245 271 270 284 297 286 277 280 279 263 238 235 261 237 216 225 216 201 214 208 246 252 221 209 217 220 211 200 220 231 222 209 207 209 208 213 222 215 204 211 216 221 230 230 233 229 221 238 249 250 252 203 108 69 66 115 122 109 99 110 112 102 88 80 71 68 67 61 56
225 208 154 166 170 151 163 198 208 230 234 217 269 277 75 15 273 252 221 217 240 247 247 267 274 278 279 273 269 256 247 262 248 226 227 215 38 1 274 219 256 243 215 215 219 209 209 232 230 218 218 225 222 209 210 230 239 228 226 222 222 226 228 237 245 228 227 249 264 249 174 108 23 32 84 90 82 68 60 75 90 81 69 64 60 56 53 49
211 165 155 177 181 172 205 227 198 220 229 108 343 259 128 242 244 238 237 220 223 231 226 244 260 259 251 256 278 273 253 263 266 258 242 198 89 24 308 264 256 250 229 225 231 203 190 228 237 222 228 234 210 189 211 227 236 237 236 233 231 229 231 238 246 249 249 269 287 266 204 126 134 80 87 89 82 70 58 54 61 62 55 49 45 43 41 38
195 147 162 186 189 192 223 247 214 210 194 104 292 245 198 244 250 244 242 220 213 230 231 239 247 245 247 255 267 267 269 272 262 261 264 239 137 179 269 271 254 252 233 139 238 222 196 213 227 222 225 226 209 202 211 210 217 231 232 230 236 240 243 237 213 226 245 223 241 267 278 106 131 118 105 108 93 76 65 56 50 50 48 42 38 38 38 37
187 145 160 183 192 209 236 282 287 251 184 162 263 247 217 219 219 244 271 253 232 246 250 251 254 249 257 264 260 261 267 262 254 261 274 268 149 153 224 254 245 263 343 44 317 262 240 219 224 235 226 218 224 231 229 222 217 223 225 226 238 246 249 250 228 237 254 229 241 265 43 98 105 112 119 122 100 82 73 69 60 52 48 43 41 41 38 37
205 166 161 171 188 218 242 269 265 256 205 194 221 237 236 228 185 178 250 252 232 243 253 254 267 268 258 261 262 257 253 242 238 250 259 262 99 93 319 231 198 338 5 2 312 267 255 247 248 262 261 249 265 287 302 299 273 242 225 210 214 254 265 274 253 245 267 251 265 292 131 137 141 129 120 96 86 82 74 72 67 58 51 44 43 40 38 36
232 199 171 169 184 212 228 230 227 233 209 202 209 211 221 245 225 166 196 232 213 223 246 241 252 262 256 259 262 263 261 247 231 237 249 250 189 58 330 105 79 27 5 327 282 256 257 250 231 242 264 270 267 305 322 314 304 281 251 207 182 227 247 252 244 251 289 253 258 36 126 140 135 110 95 75 72 73 66 64 65 63 56 50 47 43 40 39
232 198 171 196 210 205 210 212 201 182 185 189 189 218 211 227 235 198 199 230 214 210 233 227 231 244 250 260 258 253 258 252 239 240 254 253 216 153 182 149 62 32 350 275 268 260 255 256 236 239 256 262 259 351 5 333 300 270 257 199 168 212 227 232 235 271 295 259 208 160 140 127 107 87 75 68 71 70 64 60 61 65 62 56 52 47 43 40
220 207 166 197 252 190 90 91 169 179 187 184 174 201 210 201 214 215 213 222 217 214 228 234 234 238 246 263 257 244 250 261 249 233 274 290 278 218 199 209 75 45 354 324 332 333 280 243 181 239 242 282 329 345 66 343 273 189 104 66 92 92 67 44 39 43 32 67 117 136 125 101 88 90 78 69 73 74 68 62 58 58 58 56 53 48 44 39
237 273 158 186 211 146 129 155 200 194 177 194 193 169 197 211 185 210 242 229 219 222 234 245 245 247 259 271 260 235 255 315 288 264 322 309 289 283 269 271 274 331 352 344 349 354 315 201 172 224 232 213 304 282 126 239 246 162 64 32 31 57 57 48 43 46 67 93 113 123 115 94 86 98 95 86 79 75 67 58 53 49 50 55 54 49 43 37
270 297 227 220 186 140 176 192 204 215 191 194 198 164 184 225 151 140 258 246 231 236 250 256 258 271 279 271 254 181 29 339 286 268 289 288 281 315 342 286 282 255 186 323 326 342 299 255 219 246 248 225 231 246 231 235 234 131 61 26 11 16 44 58 52 30 24 105 136 134 123 121 124 114 105 94 81 74 64 54 52 49 48 53 55 50 44 38
249 233 230 251 202 152 199 198 194 221 191 107 91 155 187 236 150 151 252 235 219 235 284 284 275 278 269 249 228 334 339 316 287 272 276 263 259 324 71 105 299 262 179 164 190 162 285 274 266 257 255 241 210 222 227 239 241 152 63 23 9 6 18 70 65 36 15 13 150 137 99 115 129 129 114 97 81 72 62 52 51 52 50 53 55 53 46 40
Height
1508 1508 1508 1507 1507 1507 1506 1506 1505 1505 1504 1504 1504 1504 1503 1503 1503 1502 1502 1501 1501 1500 1500 1500 1499 1499 1498 1498 1497 1496 1495 1494 1493 1493 1493 1492 1492 1491 1492 1492 1492 1493 1494 1495 1497 1499 1500 1501 1502 1503 1503 1502 1501 1498 1497 1498 1496 1496 1494 1492 1489 1481 1476 1469 1467 1472 1472 1471 1476 1478 1479 1480 1477 1476 1475 1473 1472 1471 1472 1474 1476 1478 1480 1482 1485 1487 1487 1489
1508 1508 1507 1507 1506 1506 1506 1505 1505 1504 1504 1503 1503 1503 1502 1502 1502 1502 1501 1501 1500 1500 1500 1499 1498 1498 1497 1497 1496 1495 1494 1493 1492 1491 1491 1490 1490 1490 1490 1491 1491 1492 1493 1494 1497 1499 1500 1501 1501 1502 1501 1499 1498 1496 1496 1496 1496 1493 1490 1490 1485 1475 1472 1471 1470 1474 1475 1476 1479 1480 1480 1480 1478 1476 1476 1473 1469 1469 1469 1471 1476 1480 1481 1483 1485 1488 1488 1489
1507 1507 1506 1506 1505 1505 1505 1504 1504 1504 1503 1503 1502 1502 1501 1501 1501 1501 1500 1500 1500 1499 1499 1498 1498 1497 1497 1496 1495 1495 1493 1492 1491 1490 1489 1489 1489 1489 1489 1490 1490 1491 1493 1495 1497 1499 1499 1500 1500 1501 1499 1496 1495 1495 1495 1494 1494 1491 1488 1488 1480 1471 1472 1474 1476 1478 1479 1481 1480 1480 1481 1480 1478 1477 1476 1473 1471 1468 1465 1468 1475 1479 1483 1485 1486 1488 1489 1490
1507 1506 1506 1505 1505 1504 1504 1504 1503 1503 1502 1502 1501 1501 1500 1500 1500 1499 1499 1499 1499 1499 1498 1498 1497 1497 1496 1495 1495 1494 1493 1491 1488 1487 1488 1488 1488 1488 1489 1489 1490 1491 1492 1496 1498 1499 1499 1500 1500 1500 1498 1494 1492 1493 1492 1491 1491 1488 1487 1484 1474 1473 1476 1477 1479 1481 1482 1484 1482 1482 1482 1479 1477 1478 1476 1473 1472 1467 1463 1467 1473 1478 1485 1488 1489 1490 1490 1490
1506 1506 1505 1505 1504 1504 1503 1503 1502 1502 1502 1501 1501 1500 1500 1499 1499 1498 1498 1497 1498 1497 1497 1497 1496 1496 1495 1495 1494 1493 1493 1490 1485 1486 1487 1487 1488 1488 1488 1488 1489 1491 1492 1495 1498 1498 1499 1499 1499 1499 1496 1491 1489 1492 1490 1488 1489 1486 1484 1480 1474 1476 1479 1478 1481 1484 1485 1485 1484 1483 1481 1479 1478 1478 1475 1473 1471 1465 1464 1470 1474 1478 1484 1489 1489 1490 1490 1490
1505 1505 1504 1504 1503 1503 1502 1502 1502 1501 1501 1500 1500 1499 1499 1498 1498 1497 1496 1496 1496 1497 1496 1496 1496 1495 1495 1494 1494 1493 1493 1488 1484 1486 1486 1486 1487 1487 1488 1488 1489 1490 1492 1494 1497 1498 1498 1498 1498 1496 1494 1489 1487 1489 1487 1486 1488 1486 1481 1479 1478 1479 1479 1479 1482 1484 1486 1486 1484 1483 1481 1481 1480 1477 1474 1473 1471 1468 1470 1474 1476 1479 1484 1487 1488 1490 1490 1490
1504 1504 1504 1503 1502 1502 1502 1501 1501 1500 1500 1499 1498 1498 1498 1497 1496 1496 1495 1495 1495 1496 1495 1495 1495 1494 1494 1494 1493 1492 1491 1487 1485 1486 1485 1486 1486 1486 1487 1487 1489 1490 1491 1494 1496 1496 1496 1496 1496 1493 1492 1488 1485 1486 1485 1484 1486 1486 1482 1477 1478 1479 1479 1480 1482 1484 1485 1485 1483 1483 1483 1481 1480 1477 1474 1474 1472 1471 1473 1476 1478 1480 1484 1487 1488 1490 1490 1489
1503 1503 1502 1502 1501 1501 1501 1500 1500 1499 1499 1498 1497 1497 1496 1496 1495 1495 1494 1494 1494 1494 1494 1494 1494 1493 1494 1493 1493 1491 1488 1486 1485 1485 1485 1485 1485 1485 1486 1487 1489 1490 1492 1494 1495 1495 1495 1495 1494 1491 1489 1485 1483 1484 1484 1485 1484 1484 1482 1478 1478 1479 1480 1481 1483 1484 1484 1484 1483 1483 1481 1480 1479 1476 1474 1474 1472 1472 1475 1476 1478 1481 1483 1486 1488 1489 1489 1489
1502 1502 1501 1501 1500 1500 1500 1499 1499 1498 1497 1497 1496 1495 1495 1494 1494 1494 1493 1493 1493 1493 1493 1493 1493 1493 1493 1492 1493 1490 1484 1483 1483 1484 1484 1484 1485 1485 1486 1487 1489 1490 1493 1494 1494 1495 1494 1493 1492 1489 1487 1484 1483 1483 1484 1486 1482 1480 1480 1479 1478 1478 1479 1481 1481 1482 1482 1482 1482 1481 1479 1478 1477 1477 1475 1472 1471 1473 1475 1476 1478 1480 1482 1484 1486 1487 1488 1488
1501 1501 1500 1500 1499 1499 1498 1498 1498 1497 1496 1495 1494 1494 1494 1493 1493 1493 1492 1492 1492 1492 1492 1492 1492 1492 1493 1493 1493 1487 1482 1483 1484 1484 1484 1484 1485 1485 1486 1488 1489 1491 1493 1493 1494 1494 1492 1492 1491 1490 1489 1485 1484 1484 1483 1484 1480 1478 1480 1479 1478 1478 1478 1480 1480 1480 1481 1480 1480 1480 1478 1476 1475 1477 1474 1468 1470 1474 1475 1477 1478 1479 1482 1484 1486 1487 1487 1488
1500 1500 1499 1499 1498 1498 1497 1497 1496 1496 1495 1494 1493 1492 1492 1492 1492 1492 1491 1491 1491 1491 1491 1491 1491 1492 1492 1493 1491 1485 1482 1484 1484 1483 1484 1484 1484 1485 1486 1488 1489 1491 1493 1493 1493 1493 1493 1492 1491 1491 1490 1486 1484 1484 1482 1482 1480 1479 1481 1480 1479 1478 1478 1478 1478 1479 1480 1478 1478 1478 1476 1474 1474 1475 1470 1465 1470 1474 1475 1476 1478 1479 1483 1485 1486 1487 1487 1487
1499 1499 1498 1498 1497 1497 1496 1496 1495 1494 1493 1492 1492 1491 1491 1491 1491 1490 1490 1490 1490 1490 1490 1490 1490 1491 1491 1492 1489 1484 1483 1485 1484 1484 1484 1484 1485 1486 1487 1489 1490 1492 1492 1493 1493 1493 1493 1492 1492 1490 1488 1486 1484 1483 1482 1481 1481 1480 1481 1482 1478 1476 1476 1475 1475 1476 1477 1475 1475 1476 1478 1475 1473 1473 1467 1465 1470 1473 1474 1476 1477 1481 1484 1486 1487 1488 1488 1487
1498 1498 1497 1497 1496 1495 1495 1494 1494 1493 1492 1491 1490 1490 1490 1490 1490 1489 1489 1489 1489 1489 1489 1489 1489 1490 1491 1489 1484 1483 1484 1484 1484 1484 1484 1485 1486 1487 1488 1489 1490 1491 1492 1492 1492 1492 1493 1492 1492 1490 1488 1486 1482 1482 1482 1480 1482 1481 1480 1480 1478 1475 1471 1468 1470 1474 1474 1474 1474 1478 1481 1472 1464 1466 1464 1463 1469 1471 1473 1474 1477 1482 1484 1486 1488 1489 1488 1487
1497 1496 1496 1495 1495 1494 1493 1493 1492 1491 1490 1489 1489 1489 1488 1488 1488 1488 1488 1488 1488 1488 1488 1488 1488 1489 1490 1486 1482 1482 1482 1483 1484 1483 1484 1485 1486 1487 1488 1489 1490 1491 1491 1491 1492 1492 1492 1492 1492 1490 1488 1486 1481 1482 1483 1481 1482 1480 1478 1477 1477 1475 1466 1460 1466 1472 1472 1473 1474 1478 1481 1467 1454 1457 1460 1462 1468 1470 1471 1472 1476 1483 1485 1486 1488 1489 1487 1487
1495 1495 1494 1494 1493 1493 1492 1492 1491 1489 1489 1488 1487 1487 1487 1487 1487 1486 1487 1486 1486 1486 1486 1487 1487 1488 1488 1483 1479 1479 1480 1482 1482 1483 1484 1485 1485 1486 1487 1488 1489 1490 1490 1491 1491 1491 1492 1492 1492 1489 1487 1486 1484 1483 1482 1480 1478 1477 1479 1477 1472 1471 1464 1460 1465 1468 1470 1471 1471 1475 1476 1465 1452 1452 1457 1463 1468 1469 1469 1471 1475 1482 1484 1485 1486 1486 1486 1486
1494 1493 1493 1492 1491 1491 1490 1490 1489 1488 1487 1487 1486 1486 1486 1486 1485 1485 1485 1485 1485 1485 1485 1486 1486 1487 1486 1480 1477 1477 1478 1479 1480 1482 1483 1484 1485 1485 1486 1488 1488 1489 1490 1490 1491 1491 1492 1491 1490 1488 1485 1484 1484 1482 1479 1478 1475 1473 1476 1473 1465 1465 1463 1461 1465 1465 1466 1469 1470 1472 1471 1464 1453 1451 1457 1465 1468 1468 1469 1470 1473 1477 1479 1480 1481 1483 1485 1485
1492 1492 1491 1491 1490 1489 1489 1489 1488 1487 1486 1486 1485 1485 1485 1485 1484 1484 1483 1483 1484 1483 1485 1485 1487 1488 1483 1478 1477 1476 1476 1477 1479 1480 1481 1483 1484 1485 1486 1487 1488 1489 1489 1490 1491 1490 1490 1490 1489 1487 1483 1481 1480 1479 1480 1480 1475 1469 1470 1469 1462 1460 1460 1460 1463 1463 1465 1470 1469 1469 1469 1464 1453 1451 1459 1465 1466 1466 1468 1469 1470 1474 1476 1477 1478 1479 1483 1485
1491 1490 1490 1489 1488 1488 1488 1487 1487 1486 1485 1485 1485 1484 1484 1483 1482 1482 1482 1482 1483 1484 1485 1484 1487 1486 1477 1474 1475 1474 1474 1477 1477 1479 1480 1482 1483 1484 1485 1486 1487 1488 1488 1488 1489 1488 1489 1487 1485 1484 1481 1480 1477 1476 1480 1477 1468 1464 1466 1468 1464 1461 1461 1461 1461 1462 1465 1469 1469 1468 1469 1466 1458 1455 1459 1461 1464 1465 1465 1468 1471 1472 1475 1476 1476 1477 1480 1484
1489 1489 1488 1488 1487 1487 1486 1486 1486 1485 1484 1484 1484 1484 1482 1482 1481 1480 1481 1482 1482 1481 1479 1479 1481 1478 1471 1471 1474 1473 1474 1476 1477 1478 1480 1480 1482 1484 1484 1485 1486 1486 1486 1485 1484 1485 1485 1484 1483 1483 1479 1477 1474 1471 1471 1465 1459 1459 1458 1460 1462 1460 1460 1458 1459 1461 1464 1469 1469 1468 1468 1464 1461 1459 1458 1458 1461 1465 1464 1467 1470 1472 1473 1473 1474 1476 1478 1482
1488 1487 1487 1486 1486 1485 1485 1485 1484 1483 1483 1483 1483 1483 1482 1480 1478 1477 1479 1480 1478 1474 1472 1474 1475 1472 1470 1471 1472 1474 1474 1476 1476 1477 1479 1479 1481 1483 1483 1484 1484 1484 1482 1478 1479 1481 1482 1482 1480 1479 1474 1471 1470 1468 1466 1460 1460 1464 1460 1458 1460 1459 1456 1453 1457 1461 1464 1470 1468 1466 1466 1464 1462 1458 1456 1456 1457 1462 1464 1465 1469 1471 1472 1472 1472 1474 1477 1480
1486 1486 1485 1485 1484 1484 1484 1484 1483 1482 1482 1482 1483 1482 1482 1480 1477 1476 1479 1476 1472 1471 1471 1472 1472 1471 1471 1471 1472 1473 1473 1474 1475 1476 1477 1478 1480 1480 1480 1481 1480 1480 1477 1473 1476 1478 1480 1480 1475 1471 1468 1465 1466 1466 1466 1465 1468 1471 1468 1464 1463 1462 1458 1453 1457 1462 1464 1470 1469 1464 1465 1463 1461 1459 1456 1455 1455 1460 1463 1463 1466 1469 1469 1470 1469 1470 1474 1478
1485 1484 1483 1483 1483 1483 1483 1482 1482 1481 1481 1482 1482 1482 1482 1481 1479 1479 1480 1474 1469 1469 1470 1469 1470 1470 1470 1471 1472 1472 1472 1471 1472 1474 1475 1477 1478 1477 1476 1477 1476 1475 1473 1471 1473 1478 1480 1477 1470 1465 1464 1464 1465 1466 1468 1470 1474 1474 1470 1469 1466 1461 1457 1454 1456 1462 1464 1469 1468 1463 1463 1461 1458 1457 1457 1455 1453 1456 1460 1461 1463 1466 1466 1466 1466 1467 1470 1475
1483 1483 1482 1482 1482 1482 1482 1481 1481 1480 1481 1481 1482 1483 1482 1480 1481 1481 1481 1477 1468 1465 1466 1466 1467 1468 1469 1470 1470 1472 1471 1468 1468 1470 1473 1475 1475 1474 1473 1474 1473 1470 1470 1469 1471 1476 1477 1470 1464 1462 1462 1465 1469 1470 1472 1474 1476 1475 1471 1471 1468 1460 1458 1458 1459 1462 1464 1467 1467 1464 1463 1461 1458 1457 1455 1454 1452 1452 1457 1459 1459 1462 1464 1464 1465 1464 1467 1473
1482 1481 1481 1481 1481 1481 1480 1480 1480 1479 1480 1480 1481 1482 1481 1480 1481 1481 1481 1476 1466 1461 1462 1463 1464 1465 1466 1466 1468 1469 1469 1467 1466 1466 1470 1473 1472 1472 1471 1469 1470 1468 1466 1466 1467 1470 1467 1458 1457 1459 1461 1467 1472 1473 1475 1476 1475 1473 1471 1469 1465 1459 1456 1456 1459 1462 1464 1466 1465 1466 1469 1463 1458 1459 1455 1451 1451 1451 1453 1456 1457 1458 1460 1463 1464 1463 1464 1470
1481 1480 1480 1480 1480 1480 1480 1480 1479 1479 1480 1480 1481 1481 1480 1481 1481 1481 1481 1474 1463 1458 1460 1462 1462 1463 1463 1464 1466 1466 1467 1466 1465 1464 1467 1469 1469 1469 1468 1467 1468 1466 1462 1464 1467 1467 1461 1455 1457 1461 1463 1468 1472 1472 1473 1475 1474 1470 1468 1466 1464 1461 1456 1456 1460 1463 1468 1469 1459 1461 1475 1468 1452 1451 1451 1447 1447 1449 1451 1453 1455 1457 1458 1460 1461 1461 1462 1465
1480 1479 1479 1479 1479 1479 1480 1480 1479 1480 1480 1481 1482 1480 1480 1481 1480 1481 1480 1470 1457 1452 1457 1459 1459 1460 1461 1463 1464 1465 1466 1462 1461 1463 1464 1466 1468 1466 1466 1465 1464 1463 1460 1460 1464 1464 1458 1455 1460 1464 1465 1468 1470 1469 1468 1470 1473 1470 1462 1460 1461 1462 1461 1462 1464 1466 1472 1470 1455 1455 1473 1471 1452 1446 1445 1444 1444 1446 1451 1452 1452 1455 1456 1457 1458 1459 1460 1462
1479 1478 1478 1478 1478 1479 1479 1479 1479 1480 1480 1481 1480 1479 1481 1481 1480 1481 1479 1471 1456 1447 1451 1456 1456 1457 1458 1460 1461 1463 1462 1456 1456 1462 1461 1464 1466 1465 1464 1461 1461 1462 1456 1459 1465 1462 1456 1457 1462 1465 1466 1468 1468 1467 1465 1465 1472 1468 1457 1457 1461 1462 1465 1465 1465 1466 1466 1462 1457 1455 1464 1470 1461 1448 1442 1444 1446 1448 1449 1450 1451 1452 1454 1455 1456 1456 1458 1460
1477 1477 1477 1477 1477 1477 1477 1478 1478 1479 1480 1480 1478 1481 1481 1479 1481 1480 1478 1474 1457 1444 1448 1453 1455 1457 1457 1459 1460 1458 1456 1454 1455 1457 1459 1463 1463 1464 1464 1457 1457 1459 1455 1460 1465 1458 1456 1460 1463 1464 1467 1466 1463 1462 1460 1463 1468 1462 1456 1460 1463 1462 1463 1461 1462 1463 1460 1462 1465 1455 1455 1468 1466 1448 1440 1443 1447 1449 1448 1449 1452 1453 1455 1456 1456 1456 1456 1458
1476 1475 1475 1476 1476 1476 1476 1476 1477 1478 1479 1478 1479 1481 1479 1480 1482 1477 1477 1472 1452 1442 1447 1451 1454 1456 1456 1457 1457 1455 1455 1455 1454 1453 1457 1462 1461 1461 1462 1457 1456 1456 1455 1459 1459 1453 1454 1457 1458 1462 1464 1462 1459 1458 1457 1461 1464 1458 1457 1462 1463 1463 1462 1461 1462 1460 1459 1467 1470 1457 1452 1466 1465 1447 1442 1446 1447 1449 1450 1452 1454 1455 1458 1460 1460 1460 1458 1458
1475 1474 1474 1475 1475 1475 1475 1475 1476 1476 1477 1477 1479 1479 1479 1482 1479 1475 1478 1467 1446 1442 1447 1449 1451 1452 1451 1453 1453 1453 1454 1453 1454 1455 1457 1459 1461 1461 1460 1458 1457 1454 1453 1456 1457 1452 1452 1455 1458 1459 1461 1459 1457 1457 1457 1460 1462 1459 1461 1463 1463 1463 1460 1461 1460 1458 1466 1472 1466 1456 1451 1459 1463 1452 1450 1454 1453 1452 1453 1455 1457 1457 1460 1461 1462 1463 1462 1460
1473 1473 1473 1473 1473 1474 1475 1476 1476 1476 1476 1477 1478 1479 1480 1479 1472 1470 1469 1455 1442 1444 1446 1446 1448 1447 1448 1447 1446 1448 1451 1450 1452 1455 1456 1456 1459 1460 1460 1459 1459 1457 1454 1454 1457 1453 1451 1456 1459 1459 1459 1458 1457 1457 1456 1458 1459 1461 1463 1464 1465 1464 1462 1465 1463 1464 1478 1476 1459 1450 1445 1452 1462 1459 1458 1459 1455 1455 1456 1457 1459 1459 1460 1460 1462 1463 1462 1461
1472 1471 1471 1471 1472 1472 1473 1475 1475 1475 1476 1476 1478 1479 1478 1475 1470 1464 1455 1447 1446 1445 1442 1443 1444 1444 1445 1443 1442 1444 1447 1447 1448 1451 1453 1454 1455 1456 1457 1455 1455 1461 1459 1453 1455 1455 1451 1452 1455 1457 1458 1457 1458 1458 1456 1457 1459 1461 1462 1464 1469 1470 1472 1478 1475 1472 1477 1470 1453 1444 1443 1451 1456 1456 1462 1460 1455 1456 1457 1457 1460 1460 1460 1461 1463 1463 1462 1462
1470 1470 1469 1470 1470 1471 1472 1472 1473 1474 1475 1476 1478 1477 1474 1473 1467 1454 1444 1443 1446 1444 1441 1444 1444 1443 1444 1443 1440 1440 1442 1443 1444 1447 1448 1449 1451 1452 1453 1450 1447 1454 1455 1450 1455 1458 1456 1452 1450 1453 1455 1455 1456 1456 1457 1458 1459 1460 1460 1463 1469 1473 1483 1490 1481 1472 1470 1461 1448 1441 1447 1457 1455 1454 1460 1460 1457 1458 1458 1459 1462 1462 1463 1464 1464 1465 1464 1464
1469 1469 1469 1469 1469 1470 1471 1471 1472 1474 1474 1477 1478 1474 1475 1475 1461 1447 1442 1440 1442 1445 1444 1445 1445 1444 1444 1440 1434 1435 1440 1440 1439 1443 1444 1445 1449 1449 1449 1448 1445 1446 1448 1451 1455 1456 1460 1459 1450 1449 1451 1452 1453 1451 1450 1450 1453 1455 1452 1455 1460 1462 1474 1483 1477 1470 1468 1461 1451 1448 1455 1459 1457 1459 1458 1457 1459 1459 1459 1462 1463 1464 1466 1465 1466 1466 1466 1466
1468 1468 1468 1468 1469 1469 1470 1471 1472 1473 1475 1477 1474 1470 1473 1470 1452 1444 1444 1441 1443 1447 1445 1445 1445 1444 1442 1437 1433 1434 1439 1439 1436 1439 1441 1441 1444 1444 1443 1444 1443 1442 1445 1452 1453 1451 1456 1454 1444 1443 1445 1446 1450 1448 1443 1445 1450 1450 1447 1452 1456 1452 1456 1465 1466 1463 1467 1470 1462 1453 1453 1451 1456 1461 1458 1459 1461 1460 1462 1464 1463 1466 1466 1466 1468 1467 1466 1468
1468 1468 1468 1468 1469 1469 1470 1471 1472 1473 1475 1474 1472 1467 1463 1456 1446 1444 1446 1446 1448 1449 1446 1446 1444 1443 1440 1435 1435 1436 1437 1439 1439 1438 1438 1437 1437 1438 1437 1437 1438 1440 1441 1446 1448 1450 1456 1451 1439 1441 1444 1440 1445 1446 1443 1448 1449 1446 1448 1451 1448 1443 1446 1458 1464 1458 1465 1479 1468 1451 1450 1452 1458 1464 1460 1460 1463 1462 1464 1465 1465 1467 1467 1467 1469 1468 1469 1469
1468 1469 1469 1469 1469 1469 1469 1471 1471 1473 1475 1472 1469 1463 1453 1448 1448 1449 1451 1452 1452 1451 1450 1446 1441 1441 1439 1431 1431 1434 1435 1439 1441 1438 1437 1436 1434 1433 1433 1432 1433 1436 1437 1440 1443 1444 1451 1452 1439 1438 1444 1440 1441 1444 1442 1444 1445 1447 1450 1446 1441 1443 1445 1453 1465 1465 1469 1477 1464 1449 1449 1452 1459 1470 1468 1464 1467 1469 1468 1467 1468 1468 1468 1469 1469 1471 1472 1471
1467 1469 1470 1470 1469 1468 1468 1470 1471 1473 1475 1471 1467 1461 1453 1450 1452 1453 1455 1455 1454 1452 1451 1446 1441 1440 1438 1432 1429 1429 1433 1440 1442 1439 1438 1438 1435 1431 1429 1430 1430 1433 1435 1437 1441 1440 1446 1453 1444 1436 1441 1440 1438 1444 1444 1442 1442 1445 1445 1439 1442 1453 1454 1455 1466 1472 1473 1474 1466 1452 1445 1449 1459 1469 1471 1470 1472 1474 1472 1470 1471 1470 1469 1471 1471 1472 1474 1473
1466 1468 1470 1469 1468 1468 1468 1469 1472 1473 1472 1468 1463 1458 1453 1452 1454 1456 1458 1457 1455 1454 1451 1446 1444 1444 1441 1436 1432 1430 1434 1439 1439 1441 1441 1439 1439 1436 1430 1429 1430 1432 1434 1435 1439 1440 1444 1454 1450 1438 1436 1437 1439 1444 1447 1444 1441 1442 1443 1440 1442 1448 1452 1453 1456 1460 1463 1468 1469 1457 1448 1459 1468 1467 1468 1472 1473 1474 1474 1473 1472 1472 1472 1472 1472 1474 1475 1476
1467 1467 1468 1468 1468 1468 1468 1470 1472 1471 1468 1463 1457 1453 1452 1452 1454 1457 1459 1458 1456 1454 1451 1448 1447 1448 1444 1440 1437 1436 1437 1437 1435 1441 1441 1436 1441 1444 1436 1432 1432 1434 1435 1435 1435 1437 1443 1453 1454 1442 1435 1438 1443 1442 1441 1439 1439 1443 1446 1446 1446 1444 1443 1447 1450 1450 1454 1461 1465 1460 1461 1472 1474 1469 1470 1472 1472 1474 1474 1474 1473 1474 1475 1475 1475 1476 1477 1478
1467 1467 1466 1468 1468 1468 1469 1471 1469 1466 1461 1457 1453 1451 1454 1455 1455 1456 1459 1460 1458 1455 1454 1453 1450 1449 1447 1445 1442 1438 1438 1439 1435 1439 1439 1435 1441 1446 1439 1437 1437 1435 1436 1437 1435 1437 1443 1450 1453 1449 1443 1441 1439 1433 1432 1432 1432 1437 1442 1443 1444 1442 1444 1455 1460 1451 1449 1458 1463 1461 1472 1482 1473 1468 1471 1470 1473 1476 1473 1474 1476 1476 1478 1478 1478 1478 1479 1480
1467 1466 1465 1467 1467 1468 1470 1469 1465 1462 1457 1455 1455 1454 1456 1459 1458 1457 1458 1458 1458 1456 1455 1455 1453 1452 1450 1448 1443 1438 1440 1442 1436 1435 1438 1439 1445 1449 1444 1441 1440 1437 1437 1438 1436 1437 1442 1446 1449 1451 1446 1440 1433 1428 1429 1431 1429 1431 1433 1434 1435 1437 1444 1456 1461 1454 1449 1454 1454 1448 1463 1481 1474 1467 1470 1470 1474 1477 1475 1476 1478 1478 1480 1480 1480 1480 1481 1481
1466 1464 1465 1467 1466 1468 1470 1466 1461 1460 1457 1456 1457 1456 1457 1460 1458 1457 1457 1457 1457 1456 1455 1455 1454 1453 1451 1448 1447 1444 1443 1443 1439 1436 1437 1439 1447 1451 1447 1444 1443 1439 1437 1442 1442 1439 1443 1449 1450 1448 1444 1436 1432 1431 1430 1432 1434 1434 1432 1431 1432 1433 1436 1441 1450 1457 1455 1456 1460 1455 1461 1479 1479 1471 1472 1474 1476 1479 1480 1481 1481 1481 1483 1482 1483 1484 1482 1482
1463 1464 1466 1466 1466 1468 1468 1463 1457 1453 1453 1457 1459 1456 1457 1459 1457 1457 1456 1455 1455 1454 1455 1454 1453 1452 1450 1449 1449 1447 1445 1447 1444 1439 1437 1439 1446 1450 1447 1446 1446 1441 1440 1448 1451 1445 1446 1451 1451 1452 1452 1448 1446 1446 1441 1436 1436 1437 1434 1432 1431 1430 1433 1438 1446 1455 1456 1456 1466 1466 1464 1476 1479 1473 1474 1476 1477 1481 1483 1484 1485 1485 1485 1486 1486 1485 1484 1485
1461 1463 1465 1465 1467 1467 1465 1461 1456 1451 1452 1459 1461 1458 1457 1457 1458 1459 1457 1455 1455 1454 1455 1454 1453 1453 1451 1450 1451 1448 1446 1448 1447 1442 1440 1440 1444 1447 1447 1446 1447 1445 1445 1448 1451 1449 1448 1448 1448 1452 1456 1458 1462 1463 1455 1445 1439 1437 1434 1433 1436 1435 1437 1441 1445 1452 1457 1454 1456 1459 1463 1475 1480 1476 1477 1478 1479 1484 1486 1487 1488 1488 1488 1489 1488 1488 1488 1488
1460 1461 1463 1464 1466 1466 1463 1461 1459 1456 1456 1460 1462 1459 1458 1457 1457 1459 1460 1457 1456 1456 1457 1456 1454 1454 1453 1452 1452 1450 1446 1444 1445 1445 1443 1444 1447 1448 1447 1446 1447 1449 1449 1448 1450 1451 1450 1448 1449 1454 1455 1456 1459 1458 1453 1448 1446 1442 1435 1435 1442 1443 1442 1445 1446 1450 1454 1453 1456 1460 1464 1475 1481 1480 1481 1482 1483 1487 1488 1488 1490 1490 1491 1491 1489 1490 1490 1490
1460 1457 1458 1460 1462 1463 1462 1460 1458 1458 1458 1459 1461 1460 1459 1459 1456 1458 1460 1458 1457 1458 1457 1455 1455 1456 1455 1454 1454 1453 1448 1443 1443 1445 1445 1446 1451 1452 1450 1447 1448 1451 1451 1450 1450 1452 1456 1456 1453 1457 1459 1453 1450 1450 1449 1449 1452 1452 1444 1439 1445 1450 1452 1455 1454 1452 1453 1456 1466 1471 1471 1478 1486 1485 1486 1489 1489 1490 1491 1492 1492 1493 1493 1492 1492 1492 1492 1492
1460 1456 1456 1458 1458 1458 1458 1457 1457 1459 1459 1460 1462 1461 1460 1460 1458 1458 1460 1458 1456 1457 1457 1457 1456 1454 1453 1453 1455 1455 1452 1448 1447 1447 1446 1446 1448 1452 1453 1450 1450 1453 1451 1450 1450 1452 1459 1460 1454 1457 1462 1454 1447 1448 1451 1454 1457 1458 1454 1449 1450 1454 1456 1457 1456 1453 1453 1456 1464 1471 1474 1482 1489 1490 1492 1494 1493 1495 1496 1495 1495 1495 1494 1495 1494 1494 1495 1494
1459 1457 1457 1459 1458 1457 1457 1458 1458 1459 1460 1460 1461 1461 1461 1461 1460 1459 1458 1457 1457 1456 1456 1458 1456 1452 1450 1452 1453 1454 1455 1455 1454 1452 1452 1451 1449 1452 1456 1453 1451 1453 1452 1452 1453 1453 1457 1464 1464 1465 1467 1461 1454 1450 1453 1461 1462 1457 1455 1454 1453 1454 1456 1456 1456 1456 1456 1458 1463 1468 1476 1486 1492 1493 1495 1496 1496 1498 1498 1498 1498 1497 1496 1496 1496 1497 1497 1497
1459 1458 1458 1459 1458 1459 1460 1460 1460 1460 1461 1461 1461 1461 1461 1461 1462 1461 1459 1459 1460 1457 1456 1457 1457 1453 1451 1452 1452 1454 1456 1458 1458 1457 1457 1457 1456 1456 1459 1458 1454 1454 1454 1455 1457 1457 1460 1465 1466 1465 1464 1463 1461 1454 1454 1464 1466 1460 1460 1460 1456 1456 1459 1461 1463 1463 1463 1466 1470 1474 1482 1492 1496 1495 1496 1499 1499 1499 1500 1500 1500 1499 1499 1498 1498 1499 1499 1498
1461 1461 1460 1457 1456 1459 1460 1459 1459 1459 1458 1459 1460 1460 1461 1460 1460 1462 1462 1461 1461 1460 1458 1458 1458 1456 1455 1454 1454 1456 1458 1459 1459 1458 1456 1457 1458 1457 1459 1458 1455 1455 1456 1458 1460 1461 1462 1461 1459 1459 1460 1459 1459 1457 1455 1460 1464 1464 1470 1473 1468 1462 1464 1468 1473 1475 1473 1472 1473 1474 1479 1490 1497 1498 1498 1500 1501 1501 1502 1502 1502 1502 1502 1501 1501 1501 1501 1500
1462 1461 1461 1459 1457 1459 1459 1458 1458 1457 1456 1458 1459 1459 1460 1459 1457 1460 1463 1460 1458 1459 1458 1458 1461 1461 1459 1458 1458 1459 1460 1459 1458 1457 1456 1456 1456 1456 1458 1458 1456 1456 1457 1458 1461 1462 1462 1462 1459 1460 1463 1459 1456 1457 1458 1462 1468 1472 1479 1484 1479 1471 1468 1471 1478 1482 1480 1475 1473 1474 1479 1489 1497 1499 1500 1501 1503 1504 1504 1505 1505 1505 1504 1504 1503 1503 1502 1502